• In Kazakhstan
  • List of Countries
  • For 7 days
  • Water Temperature
  • Satellite Maps
  • Weather Map
  • News
  • Weather Widgets
  • user-avatar
    Login

    Hourly Weather Brest

    Today, 22 October, Sunday

    Time Temperature Precipitation Wind Pressure Humidity
    00:00 +8°C° 0 mm 3 mps 750 mmHg 88%
    01:00 +7°C° 0 mm 3 mps 750 mmHg 87%
    02:00 +7°C° 0 mm 3 mps 750 mmHg 85%
    03:00 +6°C° 0 mm 4 mps 750 mmHg 85%
    04:00 +5°C° 0 mm 4 mps 750 mmHg 85%
    05:00 +5°C° 0 mm 4 mps 750 mmHg 85%
    06:00 +5°C° 0 mm 4 mps 751 mmHg 86%
    07:00 +4°C° 0 mm 4 mps 751 mmHg 86%
    08:00 +4°C° 0 mm 4 mps 751 mmHg 85%
    09:00 +5°C° 0 mm 4 mps 751 mmHg 82%
    10:00 +5°C° 0 mm 4 mps 751 mmHg 78%
    11:00 +6°C° 0 mm 4 mps 751 mmHg 74%
    12:00 +7°C° 0 mm 4 mps 751 mmHg 72%
    13:00 +7°C° 0 mm 4 mps 751 mmHg 71%
    14:00 +8°C° 0 mm 4 mps 750 mmHg 69%
    15:00 +8°C° 0 mm 4 mps 750 mmHg 71%
    16:00 +7°C° 0 mm 4 mps 750 mmHg 72%
    17:00 +8°C° 0 mm 3 mps 749 mmHg 74%
    18:00 +6°C° 0 mm 4 mps 749 mmHg 75%
    19:00 +6°C° 0 mm 4 mps 749 mmHg 75%
    20:00 +6°C° 0 mm 4 mps 749 mmHg 76%
    21:00 +6°C° 0 mm 4 mps 749 mmHg 76%
    22:00 +6°C° 0 mm 4 mps 749 mmHg 77%
    23:00 +6°C° 0 mm 4 mps 749 mmHg 78%

    Tomorrow, 23 October, Monday

    Time Temperature Precipitation Wind Pressure Humidity
    00:00 +6°C° 0.1 mm 4 mps 749 mmHg 79%
    01:00 +6°C° 0.1 mm 4 mps 748 mmHg 80%
    02:00 +5°C° 0.1 mm 3 mps 748 mmHg 81%
    03:00 +5°C° 0 mm 3 mps 748 mmHg 82%
    04:00 +5°C° 0 mm 3 mps 748 mmHg 82%
    05:00 +5°C° 0 mm 3 mps 747 mmHg 83%
    06:00 +5°C° 0 mm 3 mps 747 mmHg 83%
    07:00 +5°C° 0 mm 3 mps 747 mmHg 84%
    08:00 +5°C° 0 mm 3 mps 747 mmHg 84%
    09:00 +5°C° 0.1 mm 3 mps 747 mmHg 82%
    10:00 +7°C° 0.1 mm 3 mps 748 mmHg 80%
    11:00 +7°C° 0.1 mm 3 mps 748 mmHg 78%
    12:00 +7°C° 0.2 mm 4 mps 748 mmHg 78%
    13:00 +7°C° 0.2 mm 4 mps 748 mmHg 78%
    14:00 +7°C° 0.2 mm 4 mps 748 mmHg 78%
    15:00 +7°C° 0.3 mm 4 mps 748 mmHg 79%
    16:00 +6°C° 0.3 mm 4 mps 748 mmHg 81%
    17:00 +6°C° 0.3 mm 4 mps 748 mmHg 82%
    18:00 +6°C° 0.4 mm 4 mps 749 mmHg 82%
    19:00 +5°C° 0.4 mm 4 mps 749 mmHg 83%
    20:00 +5°C° 0.4 mm 4 mps 749 mmHg 83%
    21:00 +5°C° 0.3 mm 4 mps 750 mmHg 83%
    22:00 +5°C° 0.3 mm 4 mps 750 mmHg 83%
    23:00 +4°C° 0.3 mm 4 mps 751 mmHg 82%

    Day after tomorrow, 24 October, Tuesday

    Time Temperature Precipitation Wind Pressure Humidity
    00:00 +4°C° 0.2 mm 4 mps 751 mmHg 82%
    01:00 +4°C° 0.2 mm 4 mps 751 mmHg 83%
    02:00 +4°C° 0.2 mm 4 mps 752 mmHg 83%
    03:00 +4°C° 0.1 mm 4 mps 752 mmHg 83%
    04:00 +3°C° 0.1 mm 4 mps 752 mmHg 83%
    05:00 +3°C° 0.1 mm 4 mps 753 mmHg 83%
    06:00 +3°C° 0 mm 3 mps 753 mmHg 83%
    07:00 +3°C° 0 mm 3 mps 754 mmHg 83%
    08:00 +3°C° 0 mm 3 mps 754 mmHg 82%
    09:00 +4°C° 0 mm 3 mps 755 mmHg 77%
    10:00 +5°C° 0 mm 3 mps 755 mmHg 73%
    11:00 +5°C° 0 mm 4 mps 755 mmHg 68%
    12:00 +7°C° 0 mm 3 mps 756 mmHg 65%
    13:00 +8°C° 0 mm 3 mps 756 mmHg 62%
    14:00 +8°C° 0 mm 3 mps 756 mmHg 58%
    15:00 +8°C° 0 mm 3 mps 756 mmHg 62%
    16:00 +7°C° 0 mm 2 mps 756 mmHg 65%
    17:00 +6°C° 0 mm 2 mps 756 mmHg 68%
    18:00 +6°C° 0 mm 2 mps 757 mmHg 70%
    19:00 +5°C° 0 mm 2 mps 757 mmHg 72%
    20:00 +4°C° 0 mm 2 mps 757 mmHg 74%
    21:00 +4°C° 0 mm 2 mps 758 mmHg 75%
    22:00 +4°C° 0 mm 2 mps 758 mmHg 76%
    23:00 +3°C° 0 mm 2 mps 758 mmHg 77%

    25 October, Wednesday

    Time Temperature Precipitation Wind Pressure Humidity
    00:00 +3°C° 0 mm 2 mps 758 mmHg 76%
    01:00 +3°C° 0 mm 2 mps 758 mmHg 76%
    02:00 +3°C° 0 mm 2 mps 758 mmHg 76%
    03:00 +3°C° 0 mm 2 mps 758 mmHg 77%
    04:00 +2°C° 0 mm 2 mps 758 mmHg 77%
    05:00 +2°C° 0 mm 2 mps 757 mmHg 78%
    06:00 +2°C° 0 mm 2 mps 757 mmHg 78%
    07:00 +2°C° 0 mm 2 mps 757 mmHg 78%
    08:00 +2°C° 0 mm 2 mps 758 mmHg 78%
    09:00 +2°C° 0 mm 3 mps 757 mmHg 72%
    10:00 +3°C° 0 mm 3 mps 757 mmHg 66%
    11:00 +4°C° 0 mm 4 mps 757 mmHg 60%
    12:00 +5°C° 0.1 mm 4 mps 757 mmHg 60%
    13:00 +5°C° 0.1 mm 4 mps 756 mmHg 59%
    14:00 +5°C° 0.1 mm 4 mps 756 mmHg 58%
    15:00 +5°C° 0.3 mm 4 mps 755 mmHg 62%
    16:00 +5°C° 0.3 mm 4 mps 755 mmHg 65%
    17:00 +4°C° 0.3 mm 4 mps 754 mmHg 68%
    18:00 +4°C° 0.6 mm 4 mps 754 mmHg 71%
    19:00 +3°C° 0.6 mm 5 mps 753 mmHg 73%
    20:00 +3°C° 0.6 mm 5 mps 753 mmHg 76%
    21:00 +3°C° 0.7 mm 5 mps 753 mmHg 79%
    22:00 +3°C° 0.7 mm 5 mps 752 mmHg 82%
    23:00 +3°C° 0.7 mm 5 mps 752 mmHg 85%

    26 October, Thursday

    Time Temperature Precipitation Wind Pressure Humidity
    00:00 +3°C° 0.5 mm 5 mps 751 mmHg 87%
    01:00 +4°C° 0.5 mm 4 mps 751 mmHg 90%
    02:00 +5°C° 0.5 mm 4 mps 750 mmHg 92%
    03:00 +5°C° 1.3 mm 3 mps 750 mmHg 93%
    04:00 +6°C° 1.3 mm 2 mps 749 mmHg 95%
    05:00 +7°C° 1.3 mm 1 mps 749 mmHg 96%
    06:00 +7°C° 0.9 mm 1 mps 749 mmHg 96%
    07:00 +7°C° 0.9 mm 1 mps 749 mmHg 96%
    08:00 +6°C° 0.9 mm 2 mps 749 mmHg 97%
    09:00 +7°C° 0 mm 2 mps 750 mmHg 94%
    10:00 +8°C° 0 mm 3 mps 750 mmHg 92%
    11:00 +8°C° 0 mm 4 mps 751 mmHg 89%
    12:00 +10°C° 0 mm 4 mps 751 mmHg 86%
    13:00 +10°C° 0 mm 4 mps 751 mmHg 83%
    14:00 +10°C° 0 mm 4 mps 751 mmHg 80%
    15:00 +10°C° 0 mm 3 mps 751 mmHg 81%
    16:00 +10°C° 0 mm 3 mps 750 mmHg 83%
    17:00 +9°C° 0 mm 2 mps 750 mmHg 85%
    18:00 +9°C° 0 mm 2 mps 750 mmHg 86%
    19:00 +9°C° 0 mm 2 mps 750 mmHg 88%
    20:00 +9°C° 0 mm 2 mps 750 mmHg 90%
    21:00 +8°C° 0 mm 2 mps 750 mmHg 91%
    22:00 +8°C° 0 mm 2 mps 750 mmHg 93%
    23:00 +8°C° 0 mm 2 mps 749 mmHg 94%

    27 October, Friday

    Time Temperature Precipitation Wind Pressure Humidity
    00:00 +8°C° 0 mm 2 mps 749 mmHg 95%
    01:00 +8°C° 0 mm 2 mps 749 mmHg 96%
    02:00 +8°C° 0 mm 2 mps 748 mmHg 96%
    03:00 +8°C° 0.1 mm 2 mps 748 mmHg 97%
    04:00 +9°C° 0.1 mm 3 mps 748 mmHg 97%
    05:00 +9°C° 0.1 mm 3 mps 747 mmHg 98%
    06:00 +9°C° 0.2 mm 3 mps 747 mmHg 97%
    07:00 +9°C° 0.2 mm 3 mps 746 mmHg 97%
    08:00 +10°C° 0.2 mm 3 mps 746 mmHg 97%
    09:00 +10°C° 0.1 mm 3 mps 746 mmHg 93%
    10:00 +11°C° 0.1 mm 4 mps 745 mmHg 90%
    11:00 +11°C° 0.1 mm 4 mps 745 mmHg 86%
    12:00 +11°C° 0.2 mm 4 mps 744 mmHg 86%
    13:00 +11°C° 0.2 mm 3 mps 743 mmHg 85%
    14:00 +11°C° 0.2 mm 3 mps 743 mmHg 84%
    15:00 +12°C° 0.7 mm 2 mps 742 mmHg 87%
    16:00 +10°C° 0.7 mm 2 mps 741 mmHg 90%
    17:00 +10°C° 0.7 mm 2 mps 741 mmHg 92%
    18:00 +9°C° 0.9 mm 2 mps 740 mmHg 92%
    19:00 +9°C° 0.9 mm 2 mps 740 mmHg 92%
    20:00 +8°C° 0.9 mm 3 mps 739 mmHg 92%
    21:00 +8°C° 0.8 mm 3 mps 739 mmHg 91%
    22:00 +7°C° 0.8 mm 4 mps 739 mmHg 91%
    23:00 +7°C° 0.8 mm 4 mps 739 mmHg 91%
    Show more